DW5310 Weather Reports


time (UTC)temp
F
wind
direction
speed
knots
gust
knots
rain 1hr
in
rain 24hr
in
rain mn
in
humidity
%
barometer
mb
20260502230004 69 87 0.0 1.7 0.00 0.00 0.00 63 1010.5
20260502225004 69 310 0.0 2.6 0.00 0.00 0.00 63 1010.5
20260502224504 68 215 0.0 1.7 0.00 0.00 0.00 64 1011.5
20260502224004 67 142 0.0 1.7 0.00 0.00 0.00 64 1011.5
20260502223504 68 35 0.0 0.0 0.00 0.00 0.00 63 1011.5
20260502222504 68 238 0.0 6.1 0.00 0.00 0.00 64 1011.5
20260502222004 68 337 0.9 6.1 0.00 0.00 0.00 64 1011.5
20260502221504 68 11 0.0 4.3 0.00 0.00 0.00 64 1012.5
20260502221004 67 35 0.0 5.2 0.00 0.00 0.00 65 1012.5
20260502220504 67 125 2.6 5.2 0.00 0.00 0.00 65 1012.5
20260502220003 67 311 0.0 5.2 0.00 0.00 0.00 66 1012.5
20260502215504 66 90 0.9 5.2 0.00 0.00 0.00 66 1012.5
20260502215003 66 74 0.0 2.6 0.00 0.00 0.00 66 1012.5
20260502214504 66 35 0.0 1.7 0.00 0.00 0.00 66 1012.5
20260502214005 65 221 0.0 1.7 0.00 0.00 0.00 65 1012.5
20260502213503 66 215 0.0 5.2 0.00 0.00 0.00 67 1012.5
20260502213004 66 80 0.9 5.2 0.00 0.00 0.00 68 1012.5
20260502212504 65 260 0.0 2.6 0.00 0.00 0.00 67 1012.5
20260502211504 65 188 0.0 5.2 0.00 0.00 0.00 69 1012.5
20260502210504 64 68 0.0 0.0 0.00 0.00 0.00 68 1012.5
20260502210004 64 309 0.0 2.6 0.00 0.00 0.00 71 1012.5
20260502205504 64 192 0.0 5.2 0.00 0.00 0.00 71 1012.5
20260502205004 63 90 0.9 5.2 0.00 0.00 0.00 72 1012.5
20260502204504 63 118 0.9 5.2 0.00 0.00 0.00 71 1012.5
20260502204004 63 17 0.0 5.2 0.00 0.00 0.00 71 1012.5
20260502203504 63 276 0.9 4.3 0.00 0.00 0.00 72 1012.5
20260502203004 62 224 0.0 4.3 0.00 0.00 0.00 72 1012.5
20260502202503 62 96 0.0 5.2 0.00 0.00 0.00 73 1012.5
20260502201504 62 148 0.9 5.2 0.00 0.00 0.00 73 1013.5
20260502201004 62 52 0.0 6.1 0.00 0.00 0.00 74 1013.5
20260502200004 60 51 0.0 6.1 0.00 0.00 0.00 75 1013.5
20260502195004 60 174 0.0 6.1 0.00 0.00 0.00 75 1013.5
20260502194503 60 90 0.9 6.1 0.00 0.00 0.00 75 1013.5
20260502194004 60 332 0.9 5.2 0.00 0.00 0.00 76 1013.5
20260502193007 59 35 0.0 5.2 0.00 0.00 0.00 77 1013.5
20260502192506 59 292 0.0 6.1 0.00 0.00 0.00 79 1013.5
20260502192008 58 126 1.7 6.1 0.00 0.00 0.00 79 1013.5
20260502191506 58 268 0.0 4.3 0.00 0.00 0.00 80 1014.5
20260502191006 58 196 0.0 2.6 0.00 0.00 0.00 81 1014.5
20260502190507 57 192 0.0 2.6 0.00 0.00 0.00 81 1014.5
20260502190007 56 137 0.0 1.7 0.00 0.00 0.00 81 1014.5
20260502185506 56 35 0.0 1.7 0.00 0.00 0.00 81 1014.5
20260502185007 56 7 0.0 1.7 0.00 0.00 0.00 82 1014.5
20260502184507 56 180 0.0 6.1 0.00 0.00 0.00 82 1013.5
20260502184007 56 305 1.7 6.1 0.00 0.00 0.00 82 1013.5
20260502183506 55 141 0.0 4.3 0.00 0.00 0.00 83 1013.5
20260502183008 55 66 0.0 0.0 0.00 0.00 0.00 83 1014.5
20260502182006 54 35 0.0 1.7 0.00 0.00 0.00 83 1014.5
20260502181507 54 305 0.0 0.0 0.00 0.00 0.00 83 1014.5
20260502181006 54 109 0.0 5.2 0.00 0.00 0.00 83 1014.5
20260502170507 52 332 0.0 4.3 0.00 0.00 0.00 85 1013.5
20260502164007 52 305 0.0 1.7 0.00 0.00 0.00 86 1014.5
20260502163006 51 207 0.0 0.0 0.00 0.00 0.00 86 1014.5
20260502162507 51 89 0.0 0.0 0.00 0.00 0.00 86 1014.5
20260502162008 51 45 0.0 0.0 0.00 0.00 0.00 86 1014.5
20260502161506 51 115 0.0 0.0 0.00 0.00 0.00 86 1014.5
20260502161006 51 219 0.0 0.0 0.00 0.00 0.00 86 1014.5
20260502160506 51 61 0.0 0.0 0.00 0.00 0.00 86 1014.5
20260502152006 50 51 0.0 0.0 0.00 0.00 0.00 85 1014.5
20260502151507 50 80 0.0 0.0 0.00 0.00 0.00 85 1014.5
20260502151006 50 102 0.0 0.0 0.00 0.00 0.00 85 1014.5
20260502150506 50 133 0.0 0.0 0.00 0.00 0.00 85 1014.5
20260502123506 49 58 0.0 0.0 0.00 0.00 0.00 86 1014.5
20260502123005 49 80 0.0 0.0 0.00 0.00 0.00 86 1014.5
20260502122506 49 80 0.0 0.0 0.00 0.00 0.00 86 1014.5
20260502122006 49 80 0.0 0.0 0.00 0.00 0.00 86 1014.5
20260502121006 49 77 0.0 0.0 0.00 0.00 0.00 86 1013.5
20260502120506 49 37 0.0 0.0 0.00 0.00 0.00 85 1013.5
20260502115505 49 215 0.0 0.0 0.00 0.00 0.00 85 1014.5
20260502114006 49 104 0.0 2.6 0.00 0.00 0.00 85 1014.5
20260502113506 49 246 0.0 4.3 0.00 0.00 0.00 85 1014.5
20260502113006 49 35 0.0 4.3 0.00 0.00 0.00 85 1014.5
20260502112506 49 260 0.0 7.0 0.00 0.00 0.00 85 1014.5
20260502112006 49 305 0.0 7.0 0.00 0.00 0.00 84 1014.5
20260502111505 49 78 0.0 0.0 0.00 0.00 0.00 84 1014.5
20260502111005 49 54 0.0 0.0 0.00 0.00 0.00 84 1014.5
20260502110506 49 305 0.0 0.0 0.00 0.00 0.00 84 1014.5
20260502105506 49 215 0.0 0.0 0.00 0.00 0.00 85 1013.5
20260502105006 49 170 0.0 0.0 0.00 0.00 0.00 84 1013.5
20260502104505 49 92 0.0 4.3 0.00 0.00 0.00 84 1013.5
20260502104005 49 111 0.0 4.3 0.00 0.00 0.00 84 1013.5
20260502103506 49 116 0.0 2.6 0.00 0.00 0.00 84 1013.5
20260502103005 49 195 0.0 2.6 0.00 0.00 0.00 85 1013.5
20260502102505 49 80 0.0 0.0 0.00 0.00 0.00 84 1013.5
20260502102006 49 109 0.0 2.6 0.00 0.00 0.00 83 1013.5
20260502101506 49 80 0.0 2.6 0.00 0.00 0.00 83 1013.5
20260502101006 49 126 0.0 0.0 0.00 0.00 0.00 83 1013.5
20260502091006 50 35 0.0 0.0 0.00 0.00 0.00 81 1016.5
20260502090506 50 271 0.0 0.0 0.00 0.00 0.00 80 1016.5
20260502071505 52 125 0.0 0.0 0.00 0.00 0.00 72 1015.5
20260502071005 52 80 0.0 0.0 0.00 0.00 0.00 72 1015.5
20260502070005 53 80 0.0 0.0 0.00 0.00 0.00 72 1015.5
20260502065505 53 192 0.0 0.0 0.00 0.00 0.00 72 1015.5
20260502065005 53 170 0.0 0.0 0.00 0.00 0.00 71 1015.5
20260502064005 53 125 0.0 0.0 0.00 0.00 0.00 71 1016.5
20260502063505 53 133 0.0 0.0 0.00 0.00 0.00 70 1016.5
20260502063005 53 58 0.0 4.3 0.00 0.00 0.00 70 1015.5
20260502062505 54 167 0.0 4.3 0.00 0.00 0.00 69 1015.5
20260502061505 54 89 0.0 0.0 0.00 0.00 0.00 69 1016.5
20260502060505 55 80 0.0 5.2 0.00 0.00 0.00 69 1016.5
20260502055506 55 58 0.0 0.0 0.00 0.00 0.00 69 1015.5
20260502055005 55 88 0.0 0.0 0.00 0.00 0.00 68 1015.5
20260502054005 56 282 0.0 0.0 0.00 0.00 0.00 67 1015.5
20260502053006 56 131 0.0 1.7 0.00 0.00 0.00 68 1015.5
20260502051505 57 73 0.0 0.0 0.00 0.00 0.00 67 1015.5
20260502051005 57 73 0.0 0.0 0.00 0.00 0.00 66 1015.5
20260502050504 58 54 0.0 0.0 0.00 0.00 0.00 65 1015.5
20260502045505 58 305 0.0 0.0 0.00 0.00 0.00 65 1014.5
20260502045005 59 299 0.0 0.0 0.00 0.00 0.00 64 1014.5
20260502044504 59 22 0.0 0.0 0.00 0.00 0.00 64 1014.5
20260502043005 60 305 0.0 0.0 0.00 0.00 0.00 63 1014.5
20260502042504 60 17 0.0 0.0 0.00 0.00 0.00 63 1014.5
20260502042005 61 84 0.0 0.0 0.00 0.00 0.00 63 1014.5
20260502041505 61 1 0.0 0.0 0.00 0.00 0.00 62 1014.5
20260502041005 62 78 0.0 0.0 0.00 0.00 0.00 61 1014.5
20260502040505 62 341 0.0 0.0 0.00 0.00 0.00 62 1014.5
20260502035505 62 15 0.0 0.0 0.00 0.00 0.00 61 1014.5
20260502035005 63 52 0.0 0.0 0.00 0.00 0.00 60 1014.5
20260502034504 63 323 0.0 0.0 0.00 0.00 0.00 60 1014.5
20260502034005 63 60 0.0 0.0 0.00 0.00 0.00 59 1014.5
20260502033504 64 310 0.0 0.0 0.00 0.00 0.00 59 1014.5
20260502033004 64 310 0.0 0.0 0.00 0.00 0.00 58 1014.5
20260502032004 65 35 0.0 0.0 0.00 0.00 0.00 57 1014.5
20260502031504 65 305 0.0 0.0 0.00 0.00 0.00 57 1014.5
20260502031005 65 192 0.0 0.0 0.00 0.00 0.00 57 1014.5
20260502030504 66 282 0.0 0.0 0.00 0.00 0.00 56 1014.5
20260502030005 66 305 0.0 0.0 0.00 0.00 0.00 55 1013.5
20260502025505 66 35 0.0 0.0 0.00 0.00 0.00 54 1013.5
20260502023504 67 238 0.0 0.0 0.00 0.00 0.00 53 1013.5
20260502023004 67 215 0.0 0.0 0.00 0.00 0.00 53 1013.5
20260502022504 68 74 0.0 0.0 0.00 0.00 0.00 53 1013.5
20260502021505 68 148 0.0 0.0 0.00 0.00 0.00 53 1013.5
20260502021005 68 58 0.0 0.0 0.00 0.00 0.00 52 1013.5
20260502020504 69 80 0.0 0.0 0.00 0.00 0.00 52 1013.5
20260502020005 69 129 0.0 0.0 0.00 0.00 0.00 52 1013.5
20260502015505 69 148 0.0 0.0 0.00 0.00 0.00 51 1013.5
20260502015005 69 80 0.0 1.7 0.00 0.00 0.00 51 1013.5
20260502014504 69 342 0.0 1.7 0.00 0.00 0.00 51 1013.5
20260502014004 70 63 0.0 0.0 0.00 0.00 0.00 51 1013.5
20260502013505 70 305 0.0 0.0 0.00 0.00 0.00 50 1013.5
20260502012504 70 211 0.0 4.3 0.00 0.00 0.00 50 1012.5
20260502012005 70 282 0.0 4.3 0.00 0.00 0.00 49 1012.5
20260502011504 71 310 0.0 0.0 0.00 0.00 0.00 49 1012.5
20260502011004 71 305 0.0 0.0 0.00 0.00 0.00 48 1012.5
20260502010504 71 305 0.0 0.0 0.00 0.00 0.00 48 1012.5
20260502010004 71 305 0.0 1.7 0.00 0.00 0.00 48 1013.5
20260502005504 71 249 0.0 1.7 0.00 0.00 0.00 47 1013.5
20260502005004 71 51 0.0 0.0 0.00 0.00 0.00 48 1013.5
20260502004504 71 35 0.0 0.0 0.00 0.00 0.00 48 1012.5
20260502004005 71 215 0.0 0.0 0.00 0.00 0.00 48 1012.5
20260502003504 71 247 0.0 0.0 0.00 0.00 0.00 49 1012.5
20260502002505 71 305 0.0 0.0 0.00 0.00 0.00 49 1012.5
20260502001504 71 170 0.0 0.0 0.00 0.00 0.00 50 1012.5
20260502001004 71 272 0.0 0.0 0.00 0.00 0.00 49 1012.5
20260502000504 71 305 0.0 0.0 0.00 0.00 0.00 49 1012.5
20260502000004 71 228 0.0 0.0 0.00 0.00 0.00 49 1012.5
20260501235004 71 234 0.0 0.0 0.00 0.00 0.00 49 1012.5
20260501234504 71 210 0.0 0.0 0.00 0.00 0.00 50 1012.5
20260501234004 72 317 0.0 0.0 0.00 0.00 0.00 49 1012.5
20260501233504 72 215 0.0 0.0 0.00 0.00 0.00 49 1012.5
20260501233004 71 226 0.0 6.1 0.00 0.00 0.00 50 1013.5
20260501232504 71 252 0.0 6.1 0.00 0.00 0.00 50 1013.5
20260501232004 71 160 1.7 6.1 0.00 0.00 0.00 50 1013.5
20260501231005 72 162 0.9 4.3 0.00 0.00 0.00 50 1013.5
20260501230504 72 214 0.9 4.3 0.00 0.00 0.00 51 1013.5